Mount Ida, AR

6:46 AM CDT on May 25, 2018 (GMT -0500)
Mount Ida

Weather History for KMWT - November, 2013

Change the Weather History Date:

Saturday, November 23, 2013

  Actual Average (WUND) Record (WUND)
Temperature  
Mean Temperature 40 °F -  
Max Temperature 45 °F - - (-1)
Min Temperature 35 °F - - (-1)
Degree Days  
Heating Degree Days 24    
Moisture  
Dew Point 32 °F    
Average Humidity 80    
Maximum Humidity 97    
Minimum Humidity 45    
Precipitation  
Precipitation 0.09 in - - ()
Sea Level Pressure  
Sea Level Pressure 30.47 in    
Wind  
Wind Speed 3 mph (NNE)    
Max Wind Speed 8 mph    
Max Gust Speed -    
Visibility 8 miles    
Events Rain    
Averages and records for this station are not official NWS values.
T = Trace of Precipitation, MM = Missing Value Source: NWS Daily Summary

Daily Weather History Graph

Daily Weather History Graph

Search for Another Location

Airport or City:

Astronomy

Nov. 23, 2013 Rise Set
Actual Time 6:55 AM CST 5:05 PM CST
Civil Twilight 6:28 AM CST 5:32 PM CST
Nautical Twilight 5:57 AM CST 6:03 PM CST
Astronomical Twilight 5:27 AM CST 6:33 PM CST
Moon 10:29 PM CST (11/23) 11:17 AM CST (11/23)
Length of Visible Light 11h 04m
Length of Day
10h 09m
Waning Gibbous, 69% of the Moon is Illuminated
Nov 23
Waning Gibbous
Nov 25
Last Quarter
Dec 2
New
Dec 9
First Quarter
Dec 17
Full

Hourly Weather History & Observations

Time (CST) Temp. Windchill Dew Point Humidity Pressure Visibility Wind Dir Wind Speed Gust Speed Precip Events Conditions
12:04 AM 39.9 °F 37.8 °F 37.9 °F 93% 30.38 in 4.0 mi Variable 3.5 mph - 0.01 in Rain Light Rain
12:53 AM 39.0 °F 35.7 °F 37.9 °F 96% 30.42 in 6.0 mi Variable 4.6 mph - 0.04 in Rain Light Rain
1:19 AM 39.0 °F 36.8 °F 37.9 °F 96% 30.39 in 5.0 mi Variable 3.5 mph - 0.01 in Rain Light Rain
1:31 AM 39.0 °F 36.8 °F 37.9 °F 96% 30.39 in 5.0 mi Variable 3.5 mph - 0.01 in Rain Light Rain
1:53 AM 39.0 °F 35.7 °F 37.0 °F 93% 30.42 in 7.0 mi Variable 4.6 mph - 0.02 in Rain Light Rain
2:34 AM 39.0 °F - 37.0 °F 93% 30.40 in 5.0 mi Calm Calm - 0.01 in Rain Light Rain
2:53 AM 37.9 °F 32.1 °F 37.0 °F 97% 30.43 in 5.0 mi NNE 8.1 mph - 0.01 in Rain Light Rain
3:01 AM 37.9 °F 34.4 °F 37.0 °F 97% 30.41 in 4.0 mi Variable 4.6 mph - 0.00 in Rain Light Rain
3:11 AM 37.9 °F 35.5 °F 37.0 °F 97% 30.41 in 5.0 mi Variable 3.5 mph - 0.01 in Rain Light Rain
3:41 AM 37.9 °F 35.5 °F 36.0 °F 93% 30.41 in 5.0 mi Variable 3.5 mph - 0.01 in   Overcast
3:49 AM 37.4 °F 32.1 °F 35.6 °F 93% 30.41 in 6.0 mi Variable 6.9 mph - 0.01 in Rain Light Rain
3:53 AM 37.9 °F 34.4 °F 36.0 °F 93% 30.44 in 6.0 mi Variable 4.6 mph - 0.01 in Rain Light Rain
4:07 AM 37.0 °F 31.6 °F 36.0 °F 96% 30.41 in 4.0 mi Variable 6.9 mph - 0.01 in Rain Light Rain
4:53 AM 37.0 °F - 36.0 °F 96% 30.46 in 7.0 mi Calm Calm - 0.01 in   Overcast
5:14 AM 37.0 °F 33.3 °F 35.1 °F 93% 30.42 in 9.0 mi Variable 4.6 mph - N/A   Overcast
5:23 AM 37.0 °F - 36.0 °F 96% 30.42 in 10.0 mi Calm Calm - N/A   Overcast
5:33 AM 37.0 °F - 35.1 °F 93% 30.42 in 10.0 mi Calm Calm - N/A   Overcast
5:53 AM 37.0 °F - 36.0 °F 96% 30.45 in 10.0 mi Calm Calm - N/A   Overcast
6:12 AM 37.0 °F 34.5 °F 36.0 °F 96% 30.43 in 9.0 mi Variable 3.5 mph - N/A   Overcast
6:53 AM 37.0 °F - 35.1 °F 93% 30.48 in 10.0 mi Calm Calm - N/A   Overcast
7:53 AM 37.0 °F - 35.1 °F 93% 30.51 in 8.0 mi Calm Calm - 0.00 in   Overcast
8:53 AM 37.9 °F 34.4 °F 35.1 °F 89% 30.52 in 9.0 mi Variable 4.6 mph - 0.00 in   Overcast
9:20 AM 39.0 °F 34.8 °F 35.1 °F 86% 30.50 in 10.0 mi Variable 5.8 mph - N/A   Overcast
9:53 AM 39.9 °F - 35.1 °F 83% 30.53 in 10.0 mi Calm Calm - N/A   Overcast
10:53 AM 41.0 °F 39.0 °F 34.0 °F 76% 30.55 in 10.0 mi Variable 3.5 mph - N/A   Overcast
11:53 AM 42.1 °F 38.4 °F 32.0 °F 67% 30.52 in 10.0 mi Variable 5.8 mph - N/A   Overcast
12:53 PM 44.1 °F 42.5 °F 32.0 °F 63% 30.51 in 10.0 mi Variable 3.5 mph - N/A   Overcast
1:53 PM 45.0 °F - 28.9 °F 53% 30.50 in 10.0 mi North - - N/A   Overcast
2:53 PM 45.0 °F 42.6 °F 26.1 °F 48% 30.51 in 10.0 mi Variable 4.6 mph - N/A   Overcast
3:53 PM 44.1 °F 41.5 °F 25.0 °F 47% 30.51 in 10.0 mi Variable 4.6 mph - N/A   Overcast
4:53 PM 43.0 °F - 23.0 °F 45% 30.53 in 10.0 mi Calm Calm - N/A   Overcast
5:53 PM 39.0 °F - 26.1 °F 60% 30.55 in 10.0 mi Calm Calm - N/A   Clear
6:53 PM 37.9 °F - 23.0 °F 55% 30.56 in 10.0 mi Calm Calm - N/A   Clear
7:53 PM 36.0 °F - 25.0 °F 64% 30.56 in 10.0 mi Calm Calm - N/A   Clear
8:53 PM 37.0 °F - 21.9 °F 54% 30.53 in 10.0 mi Calm Calm - N/A   Clear
9:53 PM 37.0 °F 34.5 °F 21.9 °F 54% 30.55 in 10.0 mi Variable 3.5 mph - N/A   Clear
10:53 PM 37.0 °F 32.4 °F 21.0 °F 52% 30.56 in 10.0 mi Variable 5.8 mph - N/A   Clear
11:53 PM 35.1 °F 31.0 °F 19.0 °F 52% 30.57 in 10.0 mi Variable 4.6 mph - N/A   Clear